www.pogodaiklimat.ru

Погода и климат >> Архив погоды >> Россия >> Ямало-Ненецкий АО >> Антипаюта


АРХИВ ПОГОДЫ в Антипаюте

Время (UTC), дата Ветер
(напр.,м/с)
 
Видим.   Явления Облачность Т
(С)
Тd
(С)
f
(%)
Тe
(С)
Тes
(С)
Комфортность P
(гПа)
Po
(гПа)
Тmin
(С)
Tmax
(С)
R
(мм)
R24
(мм)
S
(см)
12 12.07 ЮЗ 8-12
{15}
20 км {ливн. осадки} 9/8 600 м
[Cu hum Ac trans]
+11.9 +10.5 91 +8 +9 1003.9 1003.5
15 12.07 З 10-15
{15}
20 км 10/10 270 м
[St]
+9.9 +8.6 92 +5 +5 1005.4 1005.0 +17.3 2
03 13.07 СЗ 7-11
{12}
20 км 10/10 270 м
[St]
+7.8 +6.0 88 +3 +3 1013.0 1012.6 +6.8 +17.3 2
06 13.07 СЗ 6
{11}
20 км 8/3 600 м
[Cu med, cong Ac trans]
+10.5 +7.0 79 +7 +9 1015.4 1015.0
12 13.07 СЗ 5 20 км ясно +14.9 +5.7 54 +14 +16 1018.8 1018.4
15 13.07 С 5 20 км 3/0
[Ci fib]
+11.4 +5.9 69 +9 +9 1020.2 1019.8 +15.6
03 14.07 В 3 20 км 10/10 240 м
[St]
+6.4 +4.2 86 +3 +3 1020.3 1019.9 +3.9
06 14.07 ЮВ 4 20 км 10/0
[Ac und]
+8.5 +5.7 83 +5 +7 1018.9 1018.5
12 14.07 ЮВ 4
{10}
20 км 10/0
[Ac As]
+12.7 +8.8 77 +11 +12 1014.6 1014.1
15 14.07 ЮВ 7-11
{12}
20 км {дождь} 10/8 1080 м
[Sc Ac As]
+13.3 +9.9 80 +11 +11 1012.2 1011.8 +13.5 0.3
03 15.07 ЮВ 3 20 км 6/0
[Ci ing]
+18.3 +14.6 79 +19 +23 1008.4 1008.0 +13.1
06 15.07 ЮВ 3 20 км 8/0
[Ac trans Cc]
+21.7 +16.5 72 +26 +31 душно 1007.9 1007.5
12 15.07 ЮЗ 4 20 км 8/0
[As trans Cs]
+24.4 +17.2 64 +28 +31 душно 1008.1 1007.7 +27.1
03 16.07 СЗ 3 20 км 9/9 270 м
[St]
+12.9 +10.9 88 +11 +12 1015.9 1015.5 +10.3
06 16.07 С 4 20 км 8/8 540 м
[Sc]
+17.0 +12.3 74 +17 +18 1016.3 1015.9
12 16.07 С 6 20 км ясно +18.3 +11.7 65 +18 +20 1017.2 1016.8
15 16.07 СВ 5 20 км ясно +16.3 +11.2 72 +15 +16 1017.6 1017.2
03 17.07 СВ 7-10
{10}
20 км 10/10 180 м
[St]
+12.7 +11.4 92 +10 +10 1018.6 1018.2 +10.9
06 17.07 В 5
{10}
20 км ясно +19.6 +13.9 70 +21 +26 комфорт 1017.5 1017.1
12 17.07 В 5 20 км ясно +23.6 +12.5 50 +26 +28 жарко 1016.3 1015.9
15 17.07 СВ 5
{10}
20 км ясно +20.6 +12.7 61 +23 +23 комфорт 1016.3 1015.9 +23.6
03 18.07 СВ 3 20 км ясно +17.7 +12.1 70 +18 +23 1014.8 1014.4 +11.4
06 18.07 СВ 4 20 км ясно +23.0 +13.5 55 +26 +33 жарко 1013.9 1013.5
12 18.07 В 3 20 км ясно +27.7 +12.2 38 +29 +32 жарко 1012.9 1012.5
15 18.07 СЗ 2 20 км ясно +23.9 +16.7 64 +27 +28 жарко 1012.7 1012.3 +27.9
03 19.07 В 3 20 км ясно +23.8 +16.6 64 +27 +32 жарко 1013.6 1013.2 +17.6
06 19.07 В 4 20 км ясно +27.7 +18.0 56 +32 +39 очень
душно
1013.3 1012.9

 

Местоположение метеостанции Антипаюта (Ямало-Ненецкий АО, Россия): широта 69.08 долгота 76.85 высота над уровнем моря 3 м.

В архиве по умолчанию представлена погода в Антипаюте за последнюю неделю. Архивные данные за месяц целиком и за предыдущие месяцы, начиная с января 2011 года, Вы можете получить, выбрав интересующий диапазон дат из раскрывающегося списка и нажав кнопку "Ввод!".


*Определитесь, кто Вы:
робот инопланетянин человек

Внимание! Время в таблицах - всемирное. Для получения местного времени необходимо прибавить поправку, которая равна 5 ч.

Смотрите также архив погоды в соседних городах и на ближайших метеорологических станциях:

Погода в Тазовском (Ямало-Ненецкий АО, Россия) (195 км)
Погода в Сеяхе (Ямало-Ненецкий АО, Россия) (207 км)
Погода в Гыде (Ямало-Ненецкий АО, Россия) (209 км)
Погода в Новом Порте (Ямало-Ненецкий АО, Россия) (225 км)
Погода в Карауле (Красноярский край, Россия) (269 км)
Погода в Ныде (Ямало-Ненецкий АО, Россия) (318 км)
Погода в Тамбее (Ямало-Ненецкий АО, Россия) (327 км)
Погода в Новом Уренгое (Ямало-Ненецкий АО, Россия) (331 км)
Погода в Уренгое (Ямало-Ненецкий АО, Россия) (354 км)
Погода в Пангодах (Ямало-Ненецкий АО, Россия) (375 км)

Пояснения к столбцам:

Ветер - указаны скорость ветра в м/с - средняя за 10 мин, порывы в срок и между сроками (в фигурных скобках) и направление, откуда дует ветер: С - северный, СВ - северо-восточный, В - восточный, ЮВ - юго-восточный, Ю - южный, ЮЗ - юго-западный, З - западный, СЗ - северо-западный.
Видимость - горизонтальная дальность видимости в метрах или километрах. При видимости от 1 до 10 км при отсутствии осадков обычно наблюдается дымка, при ухудшении видимости до 1 км и менее - туман. В сухую погоду видимость может ухудшаться дымом, пылью или мглою.
Явления - указаны атмосферные явления, наблюдавшиеся в срок или в последний час перед сроком; фигурными скобками обозначены явления, наблюдавшиеся между сроками (за 1-3 часа до срока); квадратными скобками обозначены град или гололедные отложения с указанием их диаметра в мм.
Облачность - указаны через наклонную черту общая и нижняя облачность в баллах и высота нижней границы облаков в метрах; квадратными скобками обозначены формы облаков: Ci - перистые, Cs - перисто-слоистые, Cc - перисто-кучевые, Ac - высококучевые, As - высокослоистые, Sc - слоисто-кучевые, Ns - слоисто-дождевые, Cu - кучевые, Cb - кучево-дождевые. Подробнее классификацию облаков см. в Атласе облаков (PDF).
T - Температура воздуха - температура, измеренная на высоте 2 м над землей.
Td - Температура точки росы - температура, при понижении до которой содержащийся в воздухе водяной пар достигнет насыщения.
f - Относительная влажность воздуха - влажноcть воздуха, измеренная на высоте 2 м над землей.
Te - Эффективная температура - температура, которую ощущает одетый по сезону человек в тени. Характеристика душности погоды. При расчете учитывается влияние влажности воздуха и скорости ветра на теплоощущения человека.
Tes - Эффективная температура на солнце - температура, которую ощущает человек, с поправкой на солнечный нагрев. Характеристика знойности погоды. Зависит от высоты солнца над горизонтом, облачности и скорости ветра. Ночью, в пасмурную погоду, а также при ветре 12 м/с и более поправка равна нулю.
P - Атмосферное давление - приведенное к уровню моря атмосферное давление.
Po - Атмосферное давление - измеренное на уровне метеостанции атмосферное давление.
Tmin - Минимальная температура - минимум температуры воздуха на высоте 2 м над землей.
Tmax - Максимальная температура - максимум температуры воздуха на высоте 2 м над землей.
R - Количество осадков - Количество выпавших осадков за период времени, мм. При наведении курсора мыши на число - период времени, за который выпало указанное количество осадков.
R24 - Количество осадков - Количество выпавших осадков за 24 часа, мм.
S - Снежный покров - Высота снежного покрова, см. При наведении курсора мыши на число - состояние снежного покрова и степень покрытия местности в баллах.